Flag for United Arab Emirates Weather past 2 weeks in Abu Dhabi, Abu Dhabi, United Arab Emirates

Now
104 °F

Passing clouds.


Feels Like: 102 °F
Forecast: 88 / 99 °F
Wind: 6 mph from West

Location: Abu Dhabi Bateen Airport

Current Time: Sep 18, 2014 at 1:55:58 PM

Latest Report: Sep 18, 2014 at 1:00 PM


Visibility: N/A

Pressure: 29.68 "Hg

Humidity: 19%

Dew point: 54 °F

Location of Abu DhabiLocation

Historic Weather in Abu Dhabi — Graph

°F

Abu Dhabi temperature yesterday

Maximum temperature yesterday: 104 °F (at 2:00 PM)
Minimum temperature yesterday: 86 °F (at 6:00 AM)
Average temperature yesterday: 93 °F

Past Weeks' High & Low Weather Summary

 TemperatureHumidityPressure
High111 °F (Sep 4, 2:00 PM)89% (Sep 4, 2:00 AM)29.74 "Hg (Sep 4, 2:00 AM)
Low84 °F (Sep 5, 6:00 AM)9% (Sep 4, 4:00 PM)29.47 "Hg (Sep 4, 3:00 PM)
Average94 °F61%29.58 "Hg
* Reported Sep 3 12:00 Noon — Sep 18 12:00 Noon, Abu Dhabi, Weather by CustomWeather, © 2014

Note: Actual official high and low records may vary slightly from our data, if they occured in-between our weather recording intervals... More about our weather records

Advertising

Abu Dhabi weather history for previous 24 hours

 ConditionsComfort  
Time TempWeatherWind HumidityBarometerVisibility
12:00 PM
Sep 18
100 °FSunny.6 mph33%29.71 "Hg10 mi
11:00 AM99 °FPassing clouds.6 mph39%29.71 "HgN/A
10:00 AM95 °FClear.5 mph50%29.74 "Hg5 mi
9:00 AM91 °FClear.6 mph59%29.71 "Hg5 mi
8:00 AM88 °FClear.6 mph70%29.71 "Hg5 mi
7:00 AM86 °FClear.5 mph84%29.68 "Hg6 mi
6:00 AM86 °FClear.No wind84%29.65 "Hg6 mi
5:00 AM88 °FClear.3 mph79%29.65 "Hg5 mi
4:00 AM88 °FClear.6 mph79%29.62 "Hg5 mi
3:00 AM88 °FClear.2 mph79%29.62 "Hg5 mi
2:00 AM88 °FPassing clouds.2 mph79%29.62 "Hg5 mi
1:00 AM90 °FPassing clouds.5 mph75%29.62 "Hg6 mi
12:00 AM88 °FClear.3 mph79%29.62 "Hg6 mi
11:00 PM
Sep 17
90 °FClear.6 mph79%29.62 "Hg10 mi
10:00 PM90 °FClear.10 mph79%29.62 "Hg10 mi
9:00 PM91 °FClear.7 mph75%29.62 "Hg10 mi
8:00 PM91 °FPassing clouds.N/A75%29.59 "HgN/A
7:00 PM93 °FClear.10 mph67%29.59 "Hg5 mi
6:00 PM95 °FClear.13 mph63%29.59 "Hg4 mi
5:00 PM95 °FClear.14 mph63%29.59 "Hg4 mi
4:00 PM97 °FClear.14 mph50%29.56 "Hg5 mi
3:00 PM100 °FSunny.14 mph42%29.56 "Hg10 mi
2:00 PM104 °FPassing clouds.7 mph26%29.59 "HgN/A
1:00 PM102 °FPassing clouds.5 mph29%29.59 "HgN/A
Weather by CustomWeather, © 2014

See weather overviewHow to use our weather pages